Welcome to the New NWS' Forecast!
Most changes are behind the scenes, but click here for differences you might notice.

Regional Weather Roundup (RWR)

Issued by Gray - Portland, ME (GYX)

                            
756 
ASUS41 KGYX 161005
RWRGYX
WEATHER ROUNDUP FOR MAINE AND NEW HAMPSHIRE
NATIONAL WEATHER SERVICE GRAY ME
600 AM EDT THU AUG 16 2018

MEZ002-005-006-010-012-015-018-020-021-024-026-027-029-161100-
MAINE
  
CITY           SKY/WX    TMP DP  RH WIND       PRES   REMARKS
PORTLAND       CLOUDY    71  68  90 W3        29.93R                  
SANFORD        FAIR      70  66  87 W9        29.94R                  
BAR HARBOR     FOG       63  62  97 CALM      29.90R VSB 3/4          
WISCASSET      MOCLDY    67  67 100 CALM      29.93R                  
ROCKLAND       MOCLDY    65  65 100 CALM      29.91R FOG              
FRYEBURG       MOCLDY    67  67 100 E3        29.94R                  
LEWISTONAUBURN FAIR      68  67  96 CALM      29.93R                  
AUGUSTA        MOCLDY    68  65  90 CALM      29.93R                  
WATERVILLE     FAIR      64  63  96 CALM      29.88R FOG              
BANGOR         FAIR      66  64  93 W6        29.91R FOG              
GREENVILLE       N/A     63  61  93 NW5       29.93R                  
MILLINOCKET    FAIR      62  59  90 CALM      29.92R                  
HOULTON        FOG       53  53 100 CALM      29.88S VSB 3/4          
PRESQUE ISLE   FAIR      53  52  96 S5        29.91R                  
FRENCHVILLE    FAIR      56  50  80 NW10      29.90R                  
CARIBOU        FAIR      57  53  86 CALM      29.89R                  
$$

NHZ002-005-008-009-011-012-014-161100-
NEW HAMPSHIRE
  
CITY           SKY/WX    TMP DP  RH WIND       PRES   REMARKS
PORTSMOUTH     MOCLDY    71  67  88 W5        29.93R                  
ROCHESTER      FAIR      69  67  93 CALM      29.94R                  
MANCHESTER     NOT AVBL                                               
CONCORD        FAIR      66  65  96 CALM      29.95R                  
LACONIA        FAIR      69  65  86 SW3       29.96R                  
PLYMOUTH       FAIR      65  64  94 CALM      29.95S                  
BERLIN         CLOUDY    65  64  97 CALM      29.98R                  
WHITEFIELD     LGT RAIN  67  66  97 CALM      29.98R                  
JAFFREY        NOT AVBL                                               
LEBANON        FOG       68  66  93 CALM      29.96S VSB 1/4          
MT WASHINGTON  FOG       52  52 100 W39G46      N/A  VSB 0            
$$

VTZ005-007-008-161100-
VERMONT
  
CITY           SKY/WX    TMP DP  RH WIND       PRES   REMARKS
ST JOHNSBURY     N/A     67  67 100 MISG      29.95R                  
MONTPELIER     MOCLDY    65  65 100 CALM      30.03R                  
BURLINGTON     CLOUDY    69  65  86 CALM      29.98R                  
$$

MAZ007-012-024-CTZ003-RIZ002-NYZ038-NYZ072-161100-
SOUTHERN NEW ENGLAND AND NY
  
CITY           SKY/WX    TMP DP  RH WIND       PRES   REMARKS
WORCESTER      FAIR      70  67  90 W12       30.00R                  
NANTUCKET      FAIR      72  70  93 W9        29.96R                  
PROVIDENCE     FAIR      75  68  78 W9        29.97R                  
HARTFORD       FAIR      71  67  87 CALM      29.99R                  
ALBANY         FAIR      71  66  84 CALM      30.00R                  
NEW YORK CITY  FAIR      79  69  71 NW8       30.01R                  
$$

ANZ081-ANZ082-ANZ150-NHZ014-MEZ023>029-161100-
COASTAL MARINE OBSERVATIONS
  
STATION/POSITION TIME  TEMP    WIND        PRES    WAVE
                       AIR SEA DIR/SP/G            HT/PER
                 (UTC) (F)     (DEG/KT/KT) (MB)    (FT/S)
MOUNT DESERT ROC 0900   63     210/  7/  7 1011.9R
MATINICUS ROCK   0900   63      80/  4/  5 1012.0R
ISLE OF SHOALS   0900   73     270/ 13/ 13 1012.1R
JEFFREYS LEDGE   0936      69                N/A     2/ 8
$$

.............KEY..............
   WCI - WIND CHILL
   TC  - TEMPERATURE IN CELSIUS
   VSB - VISIBILITY IN MILES
   HX  - HEAT INDEX
   FAIR- INDICATES FEW OR NO CLOUDS BELOW 12,000 FT, WITH NO 
         SIGNIFICANT WEATHER AND/OR OBSTRUCTIONS TO VISIBILITY.